Tracking 21607 objects as of 23-Oct-2020
HD Live streaming from Space Station
objects crossing your sky now

COSMOS 2142

Track COSMOS 2142 now!
10-day predictions
COSMOS 2142 is classified as:


NORAD ID: 21230
Int'l Code: 1991-029A
Perigee: 967.5 km
Apogee: 1,023.4 km
Inclination: 83.0 °
Period: 104.9 minutes
Semi major axis: 7366 km
RCS: 2.0441 m2 (large)
Launch date: April 16, 1991
Source: Commonwealth of Independent States (former USSR) (CIS)
Launch site: PLESETSK MISSILE AND SPACE COMPLEX (PKMTR)
aabbcc
Your satellite tracking list
Your tracking list is empty




NASA's NSSDC Master Catalog

Two Line Element Set (TLE):
1 21230U 91029A   20296.83383150 +.00000021 +00000-0 +59843-5 0  9996
2 21230 082.9537 319.9770 0037939 186.7540 346.0245 13.73147802479169
Source of the keplerian elements: AFSPC